Dewpoint
51 54 55 52 44 42 35 34 40 38 39 39 40 43 43 45 44 42 62 67 68 68 72 73 75 75 75 75 75 74 74 74 73 73 70 69 71 71 71 70 69 70 68 70 70 70 70 69 69
48 54 50 47 38 32 29 37 38 37 36 35 37 40 40 38 41 52 63 67 68 69 71 72 74 75 75 75 74 74 74 74 73 73 71 71 71 72 72 71 71 71 71 70 71 70 69 68 67
49 52 44 42 38 29 26 33 34 34 35 35 38 38 39 40 47 55 63 68 68 69 71 71 74 74 75 75 74 74 74 74 73 74 72 72 72 72 72 72 71 71 71 69 70 70 67 67 68
45 43 42 35 32 34 32 34 34 32 34 38 39 34 39 46 58 61 63 68 69 69 71 72 74 74 74 74 74 74 74 74 74 74 73 73 73 72 72 72 71 70 69 69 69 68 65 68 68
43 41 33 32 31 33 34 33 31 30 32 33 35 34 35 38 56 60 60 60 67 69 70 71 74 74 74 74 74 74 73 74 74 74 73 73 72 73 72 72 71 70 70 68 67 65 66 66 68
37 38 28 26 27 29 31 31 30 29 29 29 31 38 39 50 55 58 60 59 60 65 70 71 72 73 74 74 74 73 73 74 73 73 73 72 72 73 72 71 71 70 68 67 65 64 66 66 67
35 32 27 28 26 25 30 29 29 28 28 27 30 31 34 44 55 57 58 60 60 60 68 70 71 72 72 73 73 73 73 73 73 73 72 71 72 72 71 71 70 68 67 66 66 66 66 66 66
40 36 31 31 27 27 29 31 30 28 29 29 32 33 37 47 51 56 59 59 60 60 65 69 70 71 72 72 72 72 72 72 72 71 71 70 70 70 70 70 70 69 68 67 67 67 66 66 66
43 34 31 31 30 29 32 33 33 33 32 32 34 34 37 42 48 49 55 56 58 60 59 68 69 69 71 71 71 71 71 71 70 70 68 68 70 69 69 68 69 69 68 68 67 67 67 66 65
39 35 32 34 33 32 33 34 35 36 34 36 37 38 43 44 45 48 51 52 56 57 59 60 69 69 70 70 71 71 71 71 70 69 69 68 68 68 68 67 68 69 68 67 68 67 66 63 60
39 35 35 35 36 37 35 35 36 35 35 37 37 37 39 41 46 48 51 54 58 59 60 60 65 68 69 69 70 70 70 70 69 69 68 66 66 65 68 68 68 67 66 66 66 65 62 59 59
37 39 39 36 36 36 35 36 34 35 35 36 38 39 42 42 44 47 51 52 57 58 59 60 60 68 68 68 69 68 69 68 68 68 66 63 63 64 67 66 67 66 65 64 63 61 60 58 58
39 37 37 38 39 38 38 37 36 35 35 37 39 41 41 43 44 47 50 53 55 57 57 60 60 68 67 67 68 68 67 67 67 66 64 61 62 63 65 65 65 64 63 62 60 59 58 58 57
40 40 39 39 40 40 39 39 37 37 37 38 40 41 42 42 43 43 50 51 54 56 57 61 61 68 68 66 66 66 67 66 65 64 62 60 61 63 64 64 64 63 62 61 59 58 57 56 56
41 39 39 39 40 39 40 37 37 38 38 38 39 40 41 42 43 43 46 50 52 56 60 62 64 67 67 65 66 66 65 65 63 63 61 60 60 62 63 64 63 63 62 61 59 58 56 55 54
39 38 34 34 38 39 37 32 35 37 38 38 39 40 41 42 42 43 46 51 56 60 59 61 64 66 66 65 66 66 65 63 63 63 62 61 61 61 63 63 63 63 62 61 59 58 56 54 52
32 31 32 34 38 38 38 35 37 38 38 37 37 38 40 43 44 43 47 53 59 59 58 59 61 66 65 65 66 66 64 63 63 63 62 61 61 62 62 62 62 62 62 61 59 56 53 52 53
29 33 30 31 35 37 38 37 38 39 40 40 41 39 40 41 46 48 52 55 58 57 59 60 62 63 65 66 66 66 65 64 62 62 62 62 62 62 62 62 62 61 60 58 56 55 56 55 55
36 34 31 34 35 36 37 36 38 40 42 40 38 40 44 49 52 52 53 56 57 58 59 60 61 61 66 65 64 64 63 63 62 61 62 62 62 62 61 61 60 59 59 58 55 56 56 57 57
36 33 31 33 34 32 32 35 37 38 41 45 46 47 48 49 51 52 52 57 56 57 58 60 61 62 63 64 64 64 63 62 62 61 61 62 62 62 61 60 59 58 57 55 55 57 57 58 59
30 29 29 29 30 31 31 31 34 35 39 41 43 45 50 49 50 53 54 55 57 57 58 59 60 61 63 62 63 63 63 62 61 60 60 61 61 61 60 59 58 58 57 57 57 58 57 57 59
27 30 31 29 29 24 30 27 33 33 37 40 41 43 48 53 54 55 54 54 56 57 58 59 60 61 62 62 61 61 61 59 59 60 60 60 60 60 59 59 58 58 58 58 58 59 59 59 59
28 30 30 30 28 27 27 30 30 35 36 39 41 44 47 54 55 55 56 56 57 58 58 60 59 60 61 62 60 61 60 60 61 61 61 60 60 60 60 60 59 59 60 60 60 60 60 60 59
32 31 30 29 28 22 27 29 27 32 34 38 40 43 46 53 55 56 57 59 58 59 58 58 60 60 61 62 60 60 60 60 60 60 60 61 61 61 61 62 61 61 61 61 61 61 61 60 60
30 26 17 15 23 24 28 27 32 31 32 36 41 43 46 48 55 55 56 56 57 57 57 57 58 58 61 62 61 60 60 60 59 59 60 60 60 61 60 62 62 62 62 61 61 61 61 61 60
29 32 18 15 22 24 27 25 30 33 32 34 39 41 45 46 48 50 53 56 56 57 58 56 57 58 60 61 61 61 60 60 60 60 60 60 60 60 61 62 63 62 62 61 61 61 61 61 60
29 27 34 28 26 18 26 29 29 34 32 33 33 38 43 45 45 46 47 48 55 55 56 58 57 58 59 60 61 61 60 59 59 59 59 59 61 60 61 61 60 60 61 60 60 60 60 60 59
27 29 20 20 9 15 20 26 28 32 32 33 33 33 36 42 44 46 46 46 45 51 57 57 58 58 59 60 59 59 59 59 59 59 58 58 59 58 59 59 60 60 60 59 59 59 59 60 59
22 23 25 26 26 10 11 25 36 32 33 33 33 33 33 35 37 43 45 46 47 48 52 56 58 58 58 59 59 59 59 60 59 59 59 59 58 58 58 58 58 58 59 59 59 59 59 60 60
23 21 24 18 16 24 16 25 36 32 34 34 34 34 35 35 35 37 40 42 45 47 50 53 55 58 58 58 58 58 58 59 59 59 59 59 58 58 58 58 58 57 58 59 59 59 59 59 58
Lifted_Index
8 8 6 5 5 6 6 7 8 8 7 7 7 6 5 4 3 2 0 -1 -2 -2 -3 -4 -5 -5 -5 -5 -4 -4 -4 -3 -3 -2 -0 0 0 0 0 1 1 2 2 2 1 2 2 2 2
8 7 6 5 5 5 6 7 8 8 8 7 7 6 5 5 4 2 -0 -1 -2 -2 -3 -4 -5 -5 -5 -5 -5 -4 -4 -3 -3 -2 -1 -0 -0 -0 0 1 1 1 2 2 2 2 2 3 3
7 7 7 6 5 4 6 7 9 9 8 7 7 6 6 5 4 2 -1 -2 -2 -2 -3 -4 -4 -5 -5 -5 -5 -4 -4 -4 -3 -3 -2 -1 -1 -1 -0 0 0 1 2 2 2 3 3 3 3
8 7 7 5 4 5 6 8 9 9 8 8 7 7 7 6 4 1 -1 -2 -3 -3 -3 -3 -4 -5 -5 -5 -5 -5 -4 -4 -4 -3 -2 -2 -2 -1 -1 -0 0 1 2 2 3 4 4 4 3
9 8 6 4 4 6 8 9 9 9 9 9 8 8 8 7 6 3 -0 -2 -3 -3 -3 -3 -4 -5 -5 -5 -5 -5 -5 -4 -4 -4 -3 -2 -2 -1 -1 -0 1 1 2 3 4 5 5 4 4
10 9 6 4 4 6 9 10 10 11 10 10 10 10 10 9 8 6 2 -1 -3 -3 -3 -3 -4 -4 -5 -5 -5 -5 -5 -5 -4 -4 -3 -2 -2 -1 -1 0 1 2 3 4 5 5 5 4 4
10 8 6 4 4 6 9 10 11 12 12 12 13 12 11 10 9 8 5 2 -1 -3 -3 -3 -3 -4 -4 -5 -5 -5 -5 -5 -4 -4 -3 -2 -2 -1 -1 -0 1 2 3 4 5 5 4 4 4
9 8 6 6 5 7 9 11 11 12 12 13 13 13 12 10 10 9 8 5 1 -2 -3 -3 -3 -3 -4 -4 -4 -4 -4 -4 -4 -4 -3 -2 -2 -1 -1 -0 0 1 3 4 4 4 4 4 5
8 7 7 7 7 8 10 11 11 12 12 13 13 13 13 11 11 10 9 7 4 0 -2 -2 -3 -3 -3 -4 -4 -4 -4 -4 -3 -3 -3 -2 -1 -1 -0 -0 0 1 2 3 3 4 4 5 5
8 7 7 8 9 10 10 11 11 12 12 12 12 12 12 12 11 11 10 8 6 3 1 -0 -1 -2 -3 -3 -3 -3 -3 -3 -3 -2 -2 -2 -1 -0 -0 -0 0 1 2 3 3 4 5 6 6
7 8 8 8 9 10 10 10 11 11 12 12 12 12 12 12 11 11 10 8 7 5 4 3 1 -1 -2 -2 -2 -3 -3 -3 -2 -2 -2 -1 -0 0 0 0 0 1 2 3 3 4 6 6 6
7 7 7 7 8 8 9 9 10 11 11 11 11 12 12 12 12 11 11 9 7 6 6 5 3 -1 -2 -2 -2 -2 -2 -2 -2 -2 -2 -1 -0 1 1 0 1 2 2 3 4 5 6 6 6
6 6 6 6 6 6 6 7 7 8 9 10 11 11 11 11 11 11 11 9 8 7 6 6 3 -0 -2 -2 -2 -2 -2 -2 -2 -2 -2 -1 -0 1 1 1 1 2 3 4 5 6 6 6 6
5 5 5 5 5 5 5 4 5 5 6 7 9 9 10 11 11 11 10 10 9 7 6 5 2 -0 -2 -2 -2 -2 -2 -2 -2 -2 -2 -1 -0 1 2 1 1 2 3 4 5 6 6 6 6
5 5 5 4 4 4 3 3 3 4 4 5 6 7 8 9 10 10 10 9 8 7 5 3 1 -1 -1 -2 -1 -1 -1 -2 -2 -2 -2 -2 -0 1 2 2 2 2 3 4 5 6 6 6 6
5 5 4 4 3 3 2 2 2 3 3 4 4 5 5 6 7 8 8 9 7 6 4 2 -0 -1 -1 -1 -1 -1 -1 -2 -2 -2 -2 -2 -1 1 2 2 2 2 3 4 5 6 6 6 6
5 4 4 4 3 2 2 1 2 3 3 3 3 4 4 4 4 4 6 7 6 5 3 1 -1 -2 -1 -1 -1 -1 -1 -1 -2 -2 -2 -2 -1 0 1 2 2 3 3 3 4 5 5 6 6
4 4 4 3 3 2 2 2 2 2 3 3 3 3 3 3 2 2 3 4 5 4 2 0 -1 -1 -1 -1 -1 -1 -1 -1 -1 -2 -2 -3 -2 0 1 2 2 2 3 3 3 4 5 6 6
4 4 4 3 3 3 2 2 2 2 2 2 2 2 2 2 1 1 1 2 3 3 2 1 0 0 0 -0 -0 -0 -0 -1 -1 -2 -2 -3 -2 -0 1 1 2 2 2 3 3 4 5 5 5
4 4 4 3 3 3 3 2 2 2 2 2 2 2 2 1 1 1 0 0 1 1 1 1 2 2 1 0 0 0 0 -0 -1 -2 -2 -2 -1 0 1 1 1 2 2 3 4 4 5 4 4
5 4 4 3 3 3 3 2 2 2 2 2 1 1 1 1 1 0 -0 -1 -1 0 1 2 3 2 2 1 0 0 0 -0 -1 -1 -2 -1 -0 0 0 1 1 2 2 3 4 4 4 4 3
4 4 3 3 3 2 2 2 3 3 2 2 1 1 1 1 0 0 -0 -1 -1 0 1 2 2 2 2 1 1 1 0 0 -0 -1 -1 0 0 -0 0 1 1 2 2 3 4 4 3 3 2
3 3 3 3 2 2 2 2 3 3 3 3 2 2 1 1 0 0 -1 -1 -1 -1 0 1 2 2 2 1 1 1 1 1 1 1 1 1 0 -0 0 1 1 2 2 3 3 3 2 2 1
2 2 2 2 2 2 2 3 3 4 4 4 3 3 2 1 0 -0 -0 -1 -1 -1 0 1 1 1 1 1 1 1 1 1 1 1 1 1 1 0 1 1 1 2 2 2 2 1 1 0 0
1 1 1 1 1 2 2 3 4 5 5 5 4 4 3 1 0 0 0 -0 -0 0 1 1 1 1 1 1 1 1 1 1 1 1 1 1 1 1 1 1 1 1 1 1 0 -0 -0 -0 -0
1 1 1 0 1 2 2 3 4 5 5 5 5 4 3 2 1 1 1 1 1 1 1 2 1 1 1 1 1 1 1 1 1 1 1 1 2 1 1 1 1 0 -0 -1 -1 -1 -1 -0 -0
1 1 1 1 1 1 2 3 4 5 5 5 5 5 4 3 3 2 2 2 2 2 2 2 2 2 2 1 1 1 1 1 2 2 1 2 2 2 1 1 1 -0 -1 -1 -1 -1 -0 0 0
2 2 2 1 1 1 2 3 4 5 5 5 5 5 4 4 4 4 3 2 2 2 2 2 2 2 2 2 1 1 1 2 2 2 2 2 2 2 2 1 1 0 -0 -0 -0 0 1 1 1
2 2 2 2 1 1 1 3 4 5 5 6 6 5 5 4 4 4 4 3 3 3 3 2 2 2 2 2 2 2 2 2 2 2 3 2 2 2 2 2 1 1 1 1 1 1 1 1 1
3 2 2 2 2 2 2 3 4 5 5 6 6 6 5 4 4 3 3 4 4 3 3 2 1 1 2 2 3 3 2 2 2 3 3 3 3 2 2 2 1 1 1 1 1 1 1 1 1